When you browse on this site, cookies collect data to enhance your experience and personalize the content and advertising you see.
Visit our Privacy Policy to learn more. By continuing to use the site, you agree to this use of cookies and data.
  • In Latvia
  • List of Countries
  • For 7 days
  • Water Temperature
  • Satellite Maps
  • Weather Map
  • Weather Widgets
  • user-avatar
    Login

    Hourly Weather Sudzioka

    Today, 21 January, Monday

    Time Temperature Precipitation Wind Pressure Humidity
    00:00 +3°C° 0 mm 5 mps 755 mmHg 68%
    01:00 +2°C° 0 mm 5 mps 755 mmHg 64%
    02:00 +2°C° 0 mm 5 mps 755 mmHg 60%
    03:00 +1°C° 0 mm 6 mps 755 mmHg 57%
    04:00 +1°C° 0 mm 5 mps 756 mmHg 55%
    05:00 +1°C° 0 mm 5 mps 756 mmHg 53%
    06:00 0°C° 0 mm 5 mps 757 mmHg 51%
    07:00 +2°C° 0 mm 5 mps 757 mmHg 45%
    08:00 +3°C° 0 mm 5 mps 758 mmHg 40%
    09:00 +5°C° 0 mm 6 mps 758 mmHg 33%
    10:00 +7°C° 0 mm 6 mps 758 mmHg 31%
    11:00 +8°C° 0 mm 7 mps 757 mmHg 29%
    12:00 +9°C° 0 mm 7 mps 757 mmHg 28%
    13:00 +9°C° 0 mm 7 mps 757 mmHg 29%
    14:00 +9°C° 0 mm 7 mps 757 mmHg 30%
    15:00 +9°C° 0 mm 7 mps 756 mmHg 31%
    16:00 +6°C° 0 mm 7 mps 757 mmHg 36%
    17:00 +5°C° 0 mm 6 mps 757 mmHg 42%
    18:00 +3°C° 0 mm 6 mps 757 mmHg 47%
    19:00 +3°C° 0 mm 6 mps 757 mmHg 51%
    20:00 +3°C° 0 mm 6 mps 757 mmHg 56%
    21:00 +3°C° 0 mm 6 mps 757 mmHg 60%
    22:00 +3°C° 0 mm 6 mps 757 mmHg 63%
    23:00 +3°C° 0 mm 6 mps 757 mmHg 65%

    Tomorrow, 22 January, Tuesday

    Time Temperature Precipitation Wind Pressure Humidity
    00:00 +3°C° 0 mm 7 mps 757 mmHg 67%
    01:00 +3°C° 0 mm 7 mps 757 mmHg 68%
    02:00 +2°C° 0 mm 7 mps 757 mmHg 69%
    03:00 +2°C° 0 mm 7 mps 757 mmHg 70%
    04:00 +2°C° 0 mm 7 mps 757 mmHg 70%
    05:00 +3°C° 0 mm 6 mps 757 mmHg 70%
    06:00 +3°C° 0 mm 6 mps 756 mmHg 70%
    07:00 +4°C° 0 mm 7 mps 757 mmHg 65%
    08:00 +5°C° 0 mm 7 mps 757 mmHg 60%
    09:00 +6°C° 0 mm 8 mps 757 mmHg 55%
    10:00 +8°C° 0 mm 7 mps 757 mmHg 49%
    11:00 +9°C° 0 mm 7 mps 757 mmHg 43%
    12:00 +11°C° 0 mm 6 mps 757 mmHg 36%
    13:00 +10°C° 0 mm 6 mps 757 mmHg 35%
    14:00 +10°C° 0 mm 6 mps 756 mmHg 34%
    15:00 +10°C° 0 mm 6 mps 756 mmHg 33%
    16:00 +9°C° 0 mm 5 mps 757 mmHg 39%
    17:00 +7°C° 0 mm 4 mps 757 mmHg 45%
    18:00 +5°C° 0 mm 4 mps 758 mmHg 51%
    19:00 +4°C° 0 mm 3 mps 758 mmHg 54%
    20:00 +4°C° 0 mm 3 mps 759 mmHg 57%
    21:00 +4°C° 0 mm 2 mps 759 mmHg 60%
    22:00 +4°C° 0 mm 2 mps 759 mmHg 60%
    23:00 +4°C° 0 mm 2 mps 759 mmHg 59%

    Day after tomorrow, 23 January, Wednesday

    Time Temperature Precipitation Wind Pressure Humidity
    00:00 +3°C° 0 mm 2 mps 759 mmHg 58%
    01:00 +3°C° 0 mm 2 mps 759 mmHg 57%
    02:00 +3°C° 0 mm 2 mps 759 mmHg 56%
    03:00 +3°C° 0 mm 2 mps 759 mmHg 55%
    04:00 +3°C° 0 mm 2 mps 759 mmHg 54%
    05:00 +3°C° 0 mm 2 mps 759 mmHg 53%
    06:00 +3°C° 0 mm 2 mps 759 mmHg 52%
    07:00 +3°C° 0 mm 3 mps 759 mmHg 48%
    08:00 +5°C° 0 mm 3 mps 759 mmHg 44%
    09:00 +7°C° 0 mm 4 mps 759 mmHg 40%
    10:00 +8°C° 0 mm 5 mps 758 mmHg 41%
    11:00 +10°C° 0 mm 7 mps 758 mmHg 41%
    12:00 +11°C° 0 mm 8 mps 757 mmHg 41%
    13:00 +11°C° 0 mm 8 mps 756 mmHg 43%
    14:00 +10°C° 0 mm 9 mps 756 mmHg 44%
    15:00 +10°C° 0 mm 9 mps 755 mmHg 45%
    16:00 +9°C° 0 mm 8 mps 755 mmHg 51%
    17:00 +6°C° 0 mm 8 mps 755 mmHg 56%
    18:00 +5°C° 0 mm 7 mps 756 mmHg 61%
    19:00 +5°C° 0 mm 8 mps 755 mmHg 63%
    20:00 +5°C° 0 mm 8 mps 755 mmHg 65%
    21:00 +5°C° 0 mm 8 mps 755 mmHg 67%
    22:00 +4°C° 0 mm 8 mps 756 mmHg 68%
    23:00 +4°C° 0 mm 8 mps 756 mmHg 68%

    24 January, Thursday

    Time Temperature Precipitation Wind Pressure Humidity
    00:00 +4°C° 0 mm 8 mps 756 mmHg 69%
    01:00 +3°C° 0 mm 7 mps 756 mmHg 67%
    02:00 +3°C° 0 mm 6 mps 756 mmHg 64%
    03:00 +2°C° 0 mm 5 mps 756 mmHg 62%
    04:00 +2°C° 0 mm 5 mps 757 mmHg 60%
    05:00 +1°C° 0 mm 5 mps 757 mmHg 58%
    06:00 +1°C° 0 mm 4 mps 758 mmHg 57%
    07:00 +3°C° 0 mm 4 mps 758 mmHg 50%
    08:00 +4°C° 0 mm 4 mps 759 mmHg 42%
    09:00 +5°C° 0 mm 3 mps 760 mmHg 35%
    10:00 +8°C° 0 mm 3 mps 759 mmHg 33%
    11:00 +8°C° 0 mm 4 mps 759 mmHg 31%
    12:00 +10°C° 0 mm 4 mps 759 mmHg 29%
    13:00 +10°C° 0 mm 4 mps 759 mmHg 30%
    14:00 +10°C° 0 mm 4 mps 759 mmHg 31%
    15:00 +10°C° 0 mm 4 mps 758 mmHg 31%
    16:00 +7°C° 0 mm 4 mps 759 mmHg 38%
    17:00 +5°C° 0 mm 3 mps 760 mmHg 45%
    18:00 +3°C° 0 mm 3 mps 760 mmHg 52%
    19:00 +3°C° 0 mm 3 mps 761 mmHg 54%
    20:00 +2°C° 0 mm 3 mps 761 mmHg 56%
    21:00 +3°C° 0 mm 2 mps 762 mmHg 58%
    22:00 +3°C° 0 mm 2 mps 762 mmHg 56%
    23:00 +3°C° 0 mm 2 mps 762 mmHg 55%

    25 January, Friday

    Time Temperature Precipitation Wind Pressure Humidity
    00:00 +3°C° 0 mm 2 mps 762 mmHg 54%
    01:00 +2°C° 0 mm 2 mps 762 mmHg 54%
    02:00 +3°C° 0 mm 1 mps 762 mmHg 54%
    03:00 +3°C° 0 mm 1 mps 762 mmHg 54%
    04:00 +3°C° 0 mm 1 mps 762 mmHg 55%
    05:00 +3°C° 0 mm 1 mps 762 mmHg 57%
    06:00 +3°C° 0 mm 1 mps 762 mmHg 58%
    07:00 +4°C° 0 mm 2 mps 762 mmHg 56%
    08:00 +5°C° 0 mm 2 mps 762 mmHg 54%
    09:00 +7°C° 0 mm 2 mps 762 mmHg 51%
    10:00 +8°C° 0 mm 2 mps 762 mmHg 48%
    11:00 +8°C° 0 mm 3 mps 761 mmHg 44%
    12:00 +9°C° 0 mm 3 mps 761 mmHg 41%
    13:00 +9°C° 0 mm 3 mps 760 mmHg 38%
    14:00 +10°C° 0 mm 4 mps 760 mmHg 35%
    15:00 +10°C° 0 mm 4 mps 759 mmHg 32%
    16:00 +7°C° 0 mm 4 mps 759 mmHg 38%
    17:00 +5°C° 0 mm 3 mps 760 mmHg 44%
    18:00 +3°C° 0 mm 3 mps 760 mmHg 50%
    19:00 +3°C° 0 mm 3 mps 760 mmHg 55%
    20:00 +2°C° 0 mm 3 mps 760 mmHg 59%
    21:00 +2°C° 0 mm 3 mps 760 mmHg 63%
    22:00 +3°C° 0 mm 2 mps 759 mmHg 64%
    23:00 +2°C° 0 mm 2 mps 759 mmHg 64%

    26 January, Saturday

    Time Temperature Precipitation Wind Pressure Humidity
    00:00 +2°C° 0 mm 2 mps 759 mmHg 64%
    01:00 +2°C° 0 mm 2 mps 758 mmHg 63%
    02:00 +2°C° 0 mm 2 mps 758 mmHg 62%
    03:00 +2°C° 0 mm 2 mps 757 mmHg 61%
    04:00 +2°C° 0 mm 2 mps 757 mmHg 63%
    05:00 +2°C° 0 mm 2 mps 757 mmHg 64%
    06:00 +2°C° 0 mm 2 mps 756 mmHg 66%
    07:00 +4°C° 0 mm 2 mps 756 mmHg 62%
    08:00 +5°C° 0 mm 2 mps 756 mmHg 58%
    09:00 +7°C° 0 mm 2 mps 756 mmHg 54%
    10:00 +8°C° 0.1 mm 2 mps 756 mmHg 48%
    11:00 +9°C° 0.1 mm 2 mps 755 mmHg 43%
    12:00 +10°C° 0.1 mm 2 mps 755 mmHg 38%
    13:00 +10°C° 0.2 mm 3 mps 755 mmHg 36%
    14:00 +9°C° 0.2 mm 3 mps 754 mmHg 34%
    15:00 +7°C° 0.2 mm 4 mps 754 mmHg 32%
    16:00 +5°C° 0 mm 5 mps 755 mmHg 35%
    17:00 +3°C° 0 mm 5 mps 755 mmHg 38%
    18:00 +1°C° 0 mm 6 mps 756 mmHg 41%
    19:00 0°C° 0 mm 5 mps 756 mmHg 44%
    20:00 0°C° 0 mm 4 mps 757 mmHg 46%
    21:00 -1°C° 0 mm 4 mps 757 mmHg 49%
    22:00 0°C° 0 mm 3 mps 757 mmHg 50%
    23:00 0°C° 0 mm 3 mps 757 mmHg 50%
    Show more